EW4847 Weather Reports


time (UTC)temp
F
wind
direction
speed
knots
gust
knots
rain 1hr
in
rain 24hr
in
rain mn
in
humidity
%
barometer
mb
20260510203009 74 24 3.5 8.7 0.00 0.00 0.00 46 1016.6
20260510201505 74 13 1.7 7.8 0.00 0.00 0.00 47 1016.8
20260510200004 74 344 1.7 8.7 0.00 0.00 0.00 47 1016.7
20260510194503 75 50 1.7 8.7 0.00 0.00 0.00 47 1016.6
20260510193001 75 49 1.7 8.7 0.00 0.00 0.00 49 1016.5
20260510191559 74 355 3.5 7.8 0.00 0.00 0.00 48 1016.6
20260510184601 74 360 2.6 7.0 0.00 0.00 0.00 50 1016.7
20260510183057 73 360 4.3 9.6 0.00 0.00 0.00 50 1016.6
20260510181556 74 5 2.6 8.7 0.00 0.00 0.00 53 1016.5
20260510180057 74 360 1.7 5.2 0.00 0.00 0.00 55 1016.4
20260510174559 74 59 2.6 8.7 0.00 0.00 0.00 54 1016.4
20260510173053 74 45 2.6 8.7 0.00 0.00 0.00 55 1016.4
20260510171603 72 17 3.5 11.3 0.00 0.00 0.00 53 1016.4
20260510170049 72 21 5.2 9.6 0.00 0.00 0.00 54 1016.5
20260510164547 72 5 4.3 8.7 0.00 0.00 0.00 56 1016.4
20260510163040 72 48 6.1 9.6 0.00 0.00 0.00 59 1016.6
20260510161534 71 355 4.3 7.8 0.00 0.00 0.00 61 1016.6
20260510160032 71 15 2.6 8.7 0.00 0.00 0.00 64 1016.7
20260510154534 71 32 0.9 8.7 0.00 0.00 0.00 65 1016.5
20260510153027 70 360 2.6 8.7 0.00 0.00 0.00 65 1016.4
20260510151524 70 11 1.7 9.6 0.00 0.00 0.00 66 1016.1
20260510150021 70 38 2.6 7.8 0.00 0.00 0.00 67 1015.8
20260510144519 69 46 1.7 7.0 0.00 0.00 0.00 69 1015.6
20260510143014 69 34 1.7 8.7 0.00 0.00 0.00 69 1015.5
20260510141506 68 51 1.7 9.6 0.00 0.00 0.00 70 1015.3
20260510140002 67 13 0.0 7.0 0.00 0.00 0.00 72 1015.1
20260510134621 66 23 1.7 9.6 0.00 0.00 0.00 71 1015.0
20260510133053 63 38 0.0 3.5 0.00 0.00 0.00 76 1014.9
20260510131548 62 46 0.0 0.0 0.00 0.00 0.00 82 1015.0
20260510130045 60 46 0.0 0.0 0.00 0.00 0.00 83 1015.0
20260510124552 59 46 0.0 3.5 0.00 0.00 0.00 83 1014.8
20260510123039 57 254 0.0 0.0 0.00 0.00 0.00 82 1014.4
20260510121536 57 254 0.0 0.0 0.00 0.00 0.00 82 1014.2
20260510120040 56 254 0.0 0.9 0.00 0.00 0.00 82 1014.3
20260510114536 56 254 0.0 0.0 0.00 0.00 0.00 82 1014.2
20260510113136 55 254 0.0 0.0 0.00 0.00 0.00 83 1014.0
20260510111533 55 254 0.0 1.7 0.00 0.00 0.00 83 1013.8
20260510110031 55 254 0.0 0.0 0.00 0.00 0.00 84 1013.5
20260510104526 55 254 0.0 0.0 0.00 0.00 0.00 83 1013.1
20260510103026 55 254 0.0 0.0 0.00 0.00 0.00 83 1012.9
20260510101523 56 254 0.0 0.0 0.00 0.00 0.00 83 1012.8
20260510100022 56 254 0.0 0.0 0.00 0.00 0.00 83 1012.6
20260510094529 56 254 0.0 0.0 0.00 0.00 0.00 82 1012.6
20260510093021 56 254 0.0 1.7 0.00 0.00 0.00 83 1012.8
20260510091522 56 254 0.9 1.7 0.00 0.00 0.00 82 1012.8
20260510090018 55 254 0.0 1.7 0.00 0.00 0.00 80 1012.5
20260510084517 54 257 0.9 1.7 0.00 0.00 0.00 80 1012.4
20260510083013 54 257 0.0 0.0 0.00 0.00 0.00 81 1012.0
20260510081511 54 257 0.0 0.0 0.00 0.00 0.00 81 1011.8
20260510080009 54 257 0.0 0.0 0.00 0.00 0.00 82 1011.7
20260510074508 54 257 0.0 0.0 0.00 0.00 0.00 82 1011.5
20260510073005 55 257 0.0 0.0 0.00 0.00 0.00 83 1011.5
20260510071502 55 257 0.0 0.0 0.00 0.00 0.00 83 1011.4
20260510070001 55 257 0.0 0.0 0.00 0.00 0.00 83 1011.5
20260510064601 55 257 0.0 0.0 0.00 0.00 0.00 83 1011.6
20260510063105 56 257 0.0 0.0 0.00 0.00 0.00 83 1011.6
20260510061555 56 257 0.0 0.0 0.00 0.00 0.00 83 1011.7
20260510060058 56 257 0.0 0.0 0.00 0.00 0.00 83 1012.0
20260510054550 56 257 0.0 0.0 0.00 0.00 0.00 83 1011.7
20260510053047 57 257 0.0 0.0 0.00 0.00 0.00 83 1011.4
20260510051607 57 257 0.0 0.0 0.00 0.00 0.00 82 1011.3
20260510050041 58 257 0.0 0.0 0.00 0.00 0.00 82 1011.2
20260510044542 58 257 0.0 0.0 0.00 0.00 0.00 81 1011.1
20260510043057 59 257 0.0 0.0 0.00 0.00 0.00 80 1011.1
20260510041537 59 257 0.0 0.0 0.00 0.00 0.00 80 1010.9
20260510040036 60 257 0.0 0.0 0.00 0.00 0.00 79 1010.8
20260510034537 61 257 0.0 0.0 0.00 0.00 0.00 78 1010.7
20260510033039 61 257 0.0 0.0 0.00 0.00 0.00 76 1010.7
20260510031555 62 257 0.0 0.0 0.00 0.00 0.00 74 1010.6
20260510030032 63 257 0.0 0.0 0.00 0.00 0.00 73 1010.5
20260510024536 64 257 0.0 0.0 0.00 0.00 0.00 72 1010.5
20260510023042 65 257 0.0 0.0 0.00 0.00 0.00 67 1010.3
20260510021530 66 257 0.0 0.0 0.00 0.00 0.00 65 1010.1
20260510020029 68 257 0.0 0.0 0.00 0.00 0.00 62 1009.9
20260510014528 69 257 0.0 0.0 0.00 0.00 0.00 59 1009.7
20260510013027 71 257 0.0 0.0 0.00 0.00 0.00 54 1009.5
20260510011527 73 257 0.0 0.0 0.00 0.00 0.00 51 1009.4
20260510010029 74 257 0.0 0.9 0.00 0.00 0.00 48 1009.1
20260510004526 76 257 0.0 0.9 0.00 0.00 0.00 44 1008.8
20260510003026 77 267 0.0 1.7 0.00 0.00 0.00 43 1008.7
20260510001525 79 140 0.0 2.6 0.00 0.00 0.00 41 1008.7
20260510000026 81 250 0.9 3.5 0.00 0.00 0.00 40 1008.7
20260509234524 83 169 0.9 5.2 0.00 0.00 0.00 37 1008.6
20260509233028 83 182 0.0 2.6 0.00 0.00 0.00 38 1008.5
20260509231522 84 259 0.0 3.5 0.00 0.00 0.00 36 1008.3
20260509230022 83 223 0.9 3.5 0.00 0.00 0.00 36 1008.4
20260509224521 84 262 0.0 3.5 0.00 0.00 0.00 37 1008.3
20260509223025 83 281 3.5 7.8 0.00 0.00 0.00 36 1008.2
20260509221525 83 171 1.7 7.0 0.00 0.00 0.00 38 1008.2
20260509220020 84 268 0.9 2.6 0.00 0.00 0.00 38 1008.3
20260509214520 82 282 1.7 7.0 0.00 0.00 0.00 38 1008.4
20260509213019 83 296 1.7 5.2 0.00 0.00 0.00 38 1008.3
20260509211536 82 263 1.7 6.1 0.00 0.00 0.00 39 1008.4
20260509210017 83 280 2.6 6.1 0.00 0.00 0.00 38 1008.5
20260509204515 84 270 1.7 7.0 0.00 0.00 0.00 41 1008.6